EDV25 KSAV-KPHL

Flight info

Callsign EDV25
Flight time N/A
Altitude 37000
Route DCT JROSS DCT RAPZZ Q135 RREGG Q117 SAWED Q97 ZJAAY JIIMS4
Aircraft CRJ9/M-SDFGIRWY/S

Departure

Time 2026-04-25 17:40
Airport Savannah Hilton Head International Airport (KSAV)

Arrival

Time N/A
Airport Philadelphia International Airport (KPHL)
Time Latitude Longitude Altitude Speed Heading
2026-04-25 17:16 32.13515 -81.20834 52 ft 0 kts
2026-04-25 17:26 32.13513 -81.20839 48 ft 4 kts 30°
2026-04-25 17:27 32.13509 -81.20844 45 ft 4 kts 39°
2026-04-25 17:27 32.13491 -81.20856 50 ft 4 kts 23°
2026-04-25 17:27 32.13465 -81.20866 52 ft 4 kts 16°
2026-04-25 17:27 32.13457 -81.20869 52 ft 4 kts 25°
2026-04-25 17:28 32.13450 -81.20877 52 ft 1 kts 91°
2026-04-25 17:29 32.13450 -81.20876 52 ft 0 kts 91°
2026-04-25 17:29 32.13450 -81.20869 52 ft 1 kts 91°
2026-04-25 17:29 32.13450 -81.20851 48 ft 3 kts 91°
2026-04-25 17:30 32.13449 -81.20822 50 ft 4 kts 95°
2026-04-25 17:30 32.13447 -81.20813 49 ft 0 kts 105°
2026-04-25 17:30 32.13445 -81.20811 49 ft 2 kts 152°
2026-04-25 17:30 32.13414 -81.20806 52 ft 5 kts 189°
2026-04-25 17:31 32.13375 -81.20814 52 ft 6 kts 188°
2026-04-25 17:31 32.13330 -81.20815 52 ft 7 kts 181°
2026-04-25 17:31 32.13279 -81.20816 52 ft 8 kts 181°
2026-04-25 17:31 32.13221 -81.20817 52 ft 9 kts 181°
2026-04-25 17:32 32.13158 -81.20818 51 ft 10 kts 179°
2026-04-25 17:32 32.13082 -81.20819 51 ft 12 kts 181°
2026-04-25 17:32 32.13051 -81.20813 50 ft 0 kts 134°
2026-04-25 17:32 32.13049 -81.20810 50 ft 1 kts 124°
2026-04-25 17:33 32.13043 -81.20793 50 ft 5 kts 107°
2026-04-25 17:33 32.13038 -81.20731 50 ft 10 kts 89°
2026-04-25 17:33 32.13039 -81.20626 50 ft 15 kts 89°
2026-04-25 17:33 32.13036 -81.20482 51 ft 20 kts 91°
2026-04-25 17:34 32.13026 -81.20353 50 ft 5 kts 129°
2026-04-25 17:34 32.12987 -81.20335 49 ft 8 kts 172°
2026-04-25 17:34 32.12906 -81.20336 42 ft 16 kts 173°
2026-04-25 17:34 32.12785 -81.20331 45 ft 16 kts 172°
2026-04-25 17:35 32.12698 -81.20327 48 ft 11 kts 163°
2026-04-25 17:35 32.12632 -81.20288 51 ft 11 kts 152°
2026-04-25 17:35 32.12566 -81.20245 51 ft 11 kts 150°
2026-04-25 17:35 32.12497 -81.20203 51 ft 12 kts 163°
2026-04-25 17:36 32.12417 -81.20198 51 ft 12 kts 180°
2026-04-25 17:36 32.12331 -81.20198 51 ft 13 kts 180°
2026-04-25 17:36 32.12238 -81.20198 51 ft 14 kts 180°
2026-04-25 17:36 32.12139 -81.20198 51 ft 15 kts 180°
2026-04-25 17:37 32.12034 -81.20196 51 ft 15 kts 179°
2026-04-25 17:37 32.11924 -81.20195 49 ft 16 kts 180°
2026-04-25 17:37 32.11808 -81.20195 52 ft 17 kts 180°
2026-04-25 17:37 32.11693 -81.20185 52 ft 15 kts 157°
2026-04-25 17:38 32.11665 -81.20141 51 ft 3 kts 91°
2026-04-25 17:38 32.11665 -81.20132 51 ft 4 kts 88°
2026-04-25 17:38 32.11672 -81.20035 49 ft 10 kts 66°
2026-04-25 17:38 32.11722 -81.20002 48 ft 7 kts 359°
2026-04-25 17:39 32.11932 -81.20005 47 ft 63 kts 359°
2026-04-25 17:39 32.12588 -81.20009 42 ft 123 kts 359°
2026-04-25 17:39 32.13601 -81.20024 92 ft 163 kts 359°
2026-04-25 17:39 32.14829 -81.20035 393 ft 192 kts 359°
2026-04-25 17:40 32.16255 -81.20031 993 ft 210 kts 359°
2026-04-25 17:40 32.17687 -81.19955 2098 ft 198 kts
2026-04-25 17:40 32.19028 -81.19691 2877 ft 210 kts 15°
2026-04-25 17:40 32.19332 -81.19570 2896 ft 219 kts 18°
2026-04-25 17:41 32.19335 -81.19569 2896 ft 219 kts 18°
2026-04-25 17:41 32.20830 -81.18732 3265 ft 245 kts 36°
2026-04-25 17:41 32.21901 -81.17294 4485 ft 227 kts 56°
2026-04-25 17:41 32.22767 -81.15758 5374 ft 226 kts 56°
2026-04-25 17:42 32.23802 -81.14353 6060 ft 228 kts 44°
2026-04-25 17:42 32.24956 -81.13089 6720 ft 228 kts 41°
2026-04-25 17:42 32.26163 -81.11829 7375 ft 230 kts 40°
2026-04-25 17:42 32.27395 -81.10595 7949 ft 237 kts 38°
2026-04-25 17:43 32.28692 -81.09312 8337 ft 250 kts 38°
2026-04-25 17:43 32.29993 -81.07972 9223 ft 249 kts 40°
2026-04-25 17:43 32.31273 -81.06574 10084 ft 251 kts 40°
2026-04-25 17:43 32.32561 -81.05158 10851 ft 254 kts 40°
2026-04-25 17:44 32.33858 -81.03721 11601 ft 256 kts 41°
2026-04-25 17:44 32.35162 -81.02262 12350 ft 259 kts 41°
2026-04-25 17:44 32.36482 -81.00792 13096 ft 261 kts 40°
2026-04-25 17:44 32.37823 -80.99324 13830 ft 264 kts 40°
2026-04-25 17:45 32.39177 -80.97842 14474 ft 267 kts 40°
2026-04-25 17:45 32.39620 -80.97357 14684 ft 268 kts 40°
2026-04-25 17:45 32.41926 -80.94832 15742 ft 274 kts 40°
2026-04-25 17:45 32.43334 -80.93287 16372 ft 278 kts 40°
2026-04-25 17:46 32.44759 -80.91725 16994 ft 281 kts 40°
2026-04-25 17:46 32.46201 -80.90144 17603 ft 284 kts 39°
2026-04-25 17:46 32.47662 -80.88539 18214 ft 288 kts 39°
2026-04-25 17:46 32.49139 -80.86925 18757 ft 290 kts 40°
2026-04-25 17:47 32.50624 -80.85290 19308 ft 291 kts 40°
2026-04-25 17:47 32.52113 -80.83649 19862 ft 293 kts 40°
2026-04-25 17:47 32.53613 -80.81996 20401 ft 295 kts 40°
2026-04-25 17:47 32.55122 -80.80334 20930 ft 297 kts 40°
2026-04-25 17:48 32.58151 -80.76998 21967 ft 301 kts 41°
2026-04-25 17:48 32.59688 -80.75306 22477 ft 302 kts 40°
2026-04-25 17:48 32.61233 -80.73602 22975 ft 304 kts 40°
2026-04-25 17:49 32.62789 -80.71886 23461 ft 307 kts 40°
2026-04-25 17:49 32.64361 -80.70145 23875 ft 308 kts 41°
2026-04-25 17:49 32.65940 -80.68411 24278 ft 310 kts 40°
2026-04-25 17:49 32.67530 -80.66659 24668 ft 313 kts 41°
2026-04-25 17:50 32.69119 -80.64894 25060 ft 315 kts 40°
2026-04-25 17:50 32.70708 -80.63129 25442 ft 317 kts 41°
2026-04-25 17:50 32.72313 -80.61235 25480 ft 333 kts 44°
2026-04-25 17:50 32.73382 -80.59830 25500 ft 344 kts 47°
2026-04-25 17:51 32.74958 -80.57604 25541 ft 359 kts 48°
2026-04-25 17:51 32.76572 -80.55319 25586 ft 373 kts 47°
2026-04-25 17:51 32.78300 -80.52953 25630 ft 386 kts 46°
2026-04-25 17:51 32.80106 -80.50511 25681 ft 399 kts 47°
2026-04-25 17:52 32.81971 -80.47988 25719 ft 412 kts 47°
2026-04-25 17:52 32.83240 -80.46269 25747 ft 420 kts 47°
2026-04-25 17:52 32.85831 -80.42752 26213 ft 424 kts 47°
2026-04-25 17:52 32.87777 -80.40111 26585 ft 427 kts 47°
2026-04-25 17:53 32.89746 -80.37438 26904 ft 429 kts 47°
2026-04-25 17:53 32.91729 -80.34743 27250 ft 432 kts 47°
2026-04-25 17:53 32.93717 -80.32043 27599 ft 434 kts 46°